CW2840 Weather Reports


Display with metric or nautical units.
time (UTC)temp
F
wind
direction
speed
MPH
gust
MPH
rain 1hr
in
rain 24hr
in
rain mn
in
humidity
%
barometer
mb
20260505014548 75 147 4.0 11.0 0.00 0.00 0.00 69 1010.4
20260505013047 75 175 5.0 9.0 0.00 0.00 0.00 69 1010.2
20260505011548 75 188 4.0 9.0 0.00 0.00 0.00 68 1010.2
20260505010047 76 171 3.0 11.0 0.00 0.00 0.00 66 1010.3
20260505004546 77 168 2.0 9.0 0.00 0.00 0.00 65 1010.2
20260505003048 77 166 6.0 9.0 0.00 0.00 0.00 65 1010.1
20260505001546 77 178 4.0 9.0 0.00 0.00 0.00 64 1010.1
20260505000740 78 179 4.0 11.0 0.00 0.00 0.00 63 1010.3
20260504234545 79 158 6.0 16.0 0.00 0.00 0.00 61 1010.3
20260504233045 79 161 6.0 16.0 0.00 0.00 0.00 59 1010.3
20260504231544 80 186 4.0 16.0 0.00 0.00 0.00 57 1010.6
20260504230044 80 172 2.0 11.0 0.00 0.00 0.00 55 1010.7
20260504224545 81 175 6.0 16.0 0.00 0.00 0.00 55 1010.7
20260504223044 81 185 7.0 13.0 0.00 0.00 0.00 53 1010.9
20260504221543 81 169 4.0 11.0 0.00 0.00 0.00 53 1011.0
20260504220738 81 165 6.0 11.0 0.00 0.00 0.00 53 1011.0
20260504214542 82 141 5.0 13.0 0.00 0.00 0.00 52 1011.1
20260504213042 82 141 4.0 9.0 0.00 0.00 0.00 51 1011.3
20260504211543 82 113 5.0 14.0 0.00 0.00 0.00 50 1011.5
20260504210042 82 220 7.0 16.0 0.00 0.00 0.00 50 1011.7
20260504204541 83 162 3.0 13.0 0.00 0.00 0.00 51 1012.1
20260504203041 83 176 3.0 16.0 0.00 0.00 0.00 50 1012.2
20260504201541 83 241 5.0 11.0 0.00 0.00 0.00 47 1012.5
20260504200740 83 216 5.0 13.0 0.00 0.00 0.00 50 1012.8
20260504194539 82 171 5.0 14.0 0.00 0.00 0.00 49 1013.1
20260504193038 81 224 8.0 14.0 0.00 0.00 0.00 50 1013.2
20260504191538 82 107 4.0 11.0 0.00 0.00 0.00 51 1013.3
20260504190038 82 152 5.0 13.0 0.00 0.00 0.00 50 1013.8
20260504184538 82 159 9.0 14.0 0.00 0.00 0.00 49 1013.8
20260504183037 80 175 6.0 14.0 0.00 0.00 0.00 51 1013.9
20260504181536 80 148 6.0 13.0 0.00 0.00 0.00 51 1014.1
20260504180037 81 171 5.0 14.0 0.00 0.00 0.00 52 1014.3
20260504174536 80 123 6.0 13.0 0.00 0.00 0.00 48 1014.4
20260504173035 80 93 9.0 18.0 0.00 0.00 0.00 50 1014.7
20260504171533 79 162 6.0 24.0 0.00 0.00 0.00 54 1014.9
20260504081504 60 161 0.0 0.0 0.00 0.00 0.00 74 1016.5
20260504050703 64 161 0.0 2.0 0.00 0.00 0.00 63 1018.1
20260504044504 65 161 0.0 2.0 0.00 0.00 0.00 64 1018.4
20260504043002 65 161 0.0 2.0 0.00 0.00 0.00 62 1018.4
20260504041502 65 161 3.0 5.0 0.00 0.00 0.00 62 1018.4
20260504040002 66 161 0.0 3.0 0.00 0.00 0.00 62 1018.3
20260504034502 67 161 0.0 3.0 0.00 0.00 0.00 56 1018.4
20260504033003 68 159 1.0 5.0 0.00 0.00 0.00 54 1018.4
20260504031502 68 148 2.0 5.0 0.00 0.00 0.00 54 1018.4
20260504031402 68 138 1.0 3.0 0.00 0.00 0.00 55 1018.2
20260504024506 69 137 2.0 5.0 0.00 0.00 0.00 53 1018.1
20260504022933 69 176 2.0 5.0 0.00 0.00 0.00 53 1018.0
20260504021431 69 176 2.0 3.0 0.00 0.00 0.00 52 1017.9
20260504015933 70 176 2.0 7.0 0.00 0.00 0.00 51 1017.7